Vorticity
nan nan nan nan nan nan nan nan nan nan nan nan nan nan nan nan nan nan nan nan nan nan nan nan nan nan nan nan nan nan nan nan nan nan nan nan nan nan nan nan nan nan nan nan nan
nan 8 8 8 8 7 7 7 7 7 7 6 6 6 6 8 15 14 13 6 11 10 11 3 6 3 3 6 6 6 6 7 11 15 10 5 8 10 9 7 10 13 16 8 nan
nan 8 8 8 8 8 8 7 7 7 7 7 7 7 6 10 16 18 15 12 8 6 7 5 5 4 3 7 7 5 8 12 15 15 7 3 6 11 6 8 12 9 5 5 nan
nan 8 8 8 8 8 9 8 8 7 7 7 7 7 11 13 7 5 18 22 10 8 5 8 5 3 5 7 8 0 1 12 20 12 4 5 6 6 9 15 20 12 5 5 nan
nan 9 9 8 9 9 9 10 8 8 8 8 7 9 14 8 5 5 14 14 12 10 6 4 3 5 6 8 2 5 5 15 18 7 2 4 3 4 17 18 17 10 5 5 nan
nan 9 8 9 9 10 10 9 8 10 9 9 8 11 13 5 4 13 19 11 8 9 8 4 3 5 9 10 7 11 11 12 9 0 4 8 0 12 17 15 9 6 5 5 nan
nan 9 9 9 9 9 8 8 9 8 9 9 10 11 8 9 7 17 17 11 7 10 8 5 7 6 5 12 10 9 7 5 8 -0 5 3 4 15 15 10 6 5 5 6 nan
nan 9 9 8 8 8 8 8 10 11 9 9 9 9 12 9 9 16 10 12 5 8 11 6 6 8 5 7 13 5 4 8 9 2 6 4 8 6 14 6 5 5 5 6 nan
nan 9 10 8 8 8 9 12 17 13 10 10 6 7 11 12 12 11 11 12 6 3 11 8 7 10 12 5 6 7 5 10 13 9 6 6 6 5 9 8 9 5 5 5 nan
nan 9 9 10 9 8 11 19 16 11 6 3 9 10 7 11 16 6 11 13 6 2 6 8 8 8 7 9 11 5 6 10 7 14 11 9 7 9 6 11 9 6 6 6 nan
nan 9 10 9 9 12 14 12 10 8 0 3 8 11 9 9 12 8 8 8 8 4 5 9 8 11 7 -4 -1 13 15 14 11 12 5 8 11 13 9 12 7 6 6 5 nan
nan 10 10 10 10 11 11 3 7 7 12 16 8 11 6 7 14 11 2 7 10 7 4 7 13 12 4 6 6 11 9 8 13 8 3 6 10 13 10 10 8 6 2 5 nan
nan 9 11 12 13 12 8 11 4 7 13 13 11 15 16 10 12 12 -0 5 12 9 4 0 14 12 9 6 5 11 14 7 8 3 7 3 8 12 12 12 11 7 6 6 nan
nan 10 11 13 11 8 13 10 5 10 13 9 12 11 8 8 18 12 5 1 11 13 7 7 13 11 8 5 7 8 7 12 12 3 11 5 4 17 16 10 11 9 7 8 nan
nan 11 15 9 9 8 6 7 12 9 9 7 10 8 8 12 13 14 7 1 11 10 7 14 9 10 8 8 2 6 15 12 3 5 10 9 0 21 13 3 6 11 11 7 nan
nan 12 16 14 6 8 5 11 12 9 6 9 6 11 12 12 7 13 6 -1 10 15 5 9 16 11 7 8 5 3 11 6 4 10 10 8 7 18 12 15 6 6 8 9 nan
nan 18 13 4 9 9 11 10 7 11 8 4 8 9 13 16 14 9 8 8 6 8 11 6 12 6 12 8 9 6 2 3 6 4 7 13 9 14 18 14 18 9 9 6 nan
nan 25 12 5 8 10 10 7 9 7 9 8 8 10 14 11 11 12 8 2 4 11 11 9 8 7 7 8 10 12 -2 -1 4 7 3 8 11 9 15 12 13 13 14 10 nan
nan 19 8 11 12 9 7 11 8 9 5 10 14 13 14 6 6 14 12 9 6 8 8 14 10 11 4 8 9 11 7 -1 3 11 12 11 5 12 12 14 16 19 7 10 nan
nan 8 11 8 7 9 12 12 7 8 10 8 11 13 14 14 7 11 10 11 10 9 9 13 14 15 11 9 7 9 14 6 8 8 11 3 4 13 18 15 17 14 7 7 nan
nan 8 7 7 11 10 10 7 7 8 10 10 9 13 13 10 15 12 4 13 17 7 7 5 13 17 11 13 7 8 6 7 7 9 8 8 10 8 17 16 15 13 11 11 nan
nan 13 6 10 11 9 8 9 9 8 14 11 8 9 10 14 18 7 2 7 16 16 14 9 10 14 13 5 14 11 8 4 8 5 -2 6 15 11 12 15 14 13 14 13 nan
nan 11 9 10 12 10 7 6 6 9 11 12 11 9 12 13 9 9 9 4 15 19 13 15 13 7 12 10 13 13 13 9 6 3 9 5 7 9 11 10 14 11 11 12 nan
nan 11 7 10 10 10 9 7 8 8 7 8 13 16 11 9 10 10 2 3 12 14 14 9 10 10 19 22 14 10 9 11 8 10 9 10 5 12 9 8 8 12 10 12 nan
nan 7 11 14 9 8 9 8 9 10 8 12 10 10 16 20 16 10 -0 8 14 3 6 12 16 13 12 16 16 22 17 12 10 6 9 14 13 11 13 11 9 8 11 11 nan
nan 11 6 10 9 6 9 8 12 7 10 13 7 6 13 10 9 10 11 14 9 9 7 13 14 10 10 8 12 14 14 13 13 16 12 10 17 12 15 11 14 12 12 13 nan
nan nan nan nan nan nan nan nan nan nan nan nan nan nan nan nan nan nan nan nan nan nan nan nan nan nan nan nan nan nan nan nan nan nan nan nan nan nan nan nan nan nan nan nan nan
CAPE
2 2 4 1 2 2 1 1 1 3 2 3 2 2 1 2 0 0 0 0 0 0 0 0 0 0 79 146 224 292 370 127 105 129 175 175 143 158 147 189 69 52 9 234 278
4 2 2 4 3 2 1 1 2 1 1 1 3 1 1 0 0 0 0 0 0 0 0 0 0 0 0 12 163 322 211 102 112 114 98 121 109 73 123 220 124 35 127 151 151
5 4 7 7 6 5 2 1 1 1 1 1 2 1 0 0 0 0 0 0 0 0 0 0 0 0 0 0 80 133 167 134 180 133 97 63 132 89 163 195 145 157 130 139 83
6 5 5 5 2 2 3 2 3 2 1 1 1 2 0 0 0 0 0 0 0 0 0 0 0 0 0 0 0 146 169 81 87 95 26 63 38 136 115 109 66 35 120 116 50
5 5 5 3 2 1 1 1 1 2 1 1 2 0 0 0 0 0 0 0 0 0 0 0 0 0 0 0 30 216 129 199 123 29 103 70 152 88 101 40 21 4 45 8 2
5 3 2 3 2 1 2 1 2 1 2 1 1 0 0 0 0 0 0 0 0 0 0 0 0 0 0 0 49 2 97 219 99 85 104 78 57 95 42 31 0 0 0 0 0
1 2 3 2 1 1 0 1 2 1 1 2 0 0 0 0 0 0 0 0 0 0 0 0 0 0 0 0 0 8 34 238 136 136 98 33 12 108 42 16 0 0 1 5 30
0 1 2 1 2 1 0 1 4 4 0 0 0 0 0 0 0 0 0 0 0 0 0 0 0 0 0 0 0 8 17 139 205 125 143 49 135 173 30 0 3 30 25 26 28
1 1 2 1 1 1 1 2 1 3 0 0 0 0 0 0 0 0 0 0 0 0 0 0 0 0 0 0 0 12 42 102 273 178 72 60 100 113 60 1 23 38 51 99 194
1 1 0 1 2 1 0 0 0 0 0 0 0 0 0 0 0 0 0 0 0 0 0 0 0 0 1 16 8 1 1 313 226 223 165 285 114 96 142 103 83 74 117 176 283
2 0 2 1 2 1 0 0 0 0 0 0 0 0 0 0 0 0 0 0 0 0 0 0 0 0 1 17 0 0 0 339 311 218 293 154 43 217 162 97 90 57 127 202 253
0 1 2 1 1 1 0 0 0 0 0 0 0 0 0 0 0 0 0 0 0 0 0 0 0 0 0 12 0 5 5 389 403 617 270 221 221 245 179 40 169 119 112 188 207
0 0 1 1 0 0 0 0 0 0 0 0 0 0 0 0 0 0 0 0 0 0 0 0 0 0 0 0 0 259 175 340 302 370 308 206 283 353 149 108 155 148 216 159 157
0 0 0 0 0 0 0 0 0 0 6 0 0 0 0 0 0 0 0 0 0 0 0 0 0 0 0 0 0 1 12 273 557 348 234 431 13 314 259 263 224 154 204 230 191
0 0 0 0 0 0 0 0 0 0 24 0 0 0 0 0 0 0 0 0 0 0 0 0 0 0 0 0 0 0 9 196 291 201 252 209 0 88 451 341 188 210 137 92 112
0 1 0 0 0 0 0 0 0 3 2 2 0 0 0 0 0 0 0 0 0 0 0 2 0 0 0 0 0 0 12 67 69 173 30 103 154 242 518 429 465 228 205 90 100
0 0 1 0 0 0 0 0 14 8 0 0 0 0 0 4 0 0 0 0 0 0 0 0 0 0 0 0 0 0 75 61 26 33 95 9 2 143 180 176 357 363 230 315 67
0 0 0 0 0 0 0 0 0 0 0 0 0 0 7 1 52 0 0 0 0 0 0 0 0 0 0 0 0 0 41 36 46 119 139 144 31 108 136 150 234 359 271 377 286
0 0 0 0 0 0 0 0 0 0 0 0 0 6 12 0 38 58 24 31 1 0 0 1 7 0 0 0 0 0 1 29 45 93 130 178 183 241 282 311 278 412 384 211 366
0 0 0 0 0 0 0 0 0 0 0 0 4 19 68 29 42 87 92 84 50 1 0 5 7 0 0 0 0 0 2 44 33 101 96 191 151 482 609 519 447 396 421 231 269
0 0 0 0 0 0 0 0 0 0 0 0 0 88 153 153 90 113 69 17 3 1 0 6 0 1 0 0 0 0 0 1 36 12 123 149 210 833 994 831 756 652 338 321 336
0 0 0 0 0 0 0 0 0 0 0 0 0 22 161 212 172 147 32 12 0 0 0 0 11 67 0 0 0 0 0 0 4 36 9 145 830 869 1033 984 743 911 683 471 758
0 0 0 0 0 0 0 0 0 0 0 0 0 0 127 190 209 166 1 0 0 0 65 54 11 82 61 0 0 0 0 0 3 25 70 69 302 1231 1218 1163 1127 1044 915 724 556
0 0 0 0 0 0 0 0 0 0 0 0 0 0 113 194 75 20 1 11 4 43 0 4 100 109 75 60 14 0 0 0 17 53 63 111 541 1220 1288 1136 765 842 815 789 920
0 0 0 0 0 0 0 0 0 0 0 0 2 0 100 182 189 117 1 14 5 1 43 43 158 123 37 61 31 9 3 0 1 10 69 65 78 723 1274 1359 783 630 802 824 613
0 0 0 0 0 0 0 0 0 0 0 0 1 0 46 74 31 22 0 0 0 8 173 52 114 151 83 8 123 107 71 32 24 21 53 42 574 1238 1326 1196 1065 743 476 431 488
0 0 0 0 0 0 0 0 0 0 0 0 0 28 23 0 0 0 0 0 0 0 47 27 129 194 191 55 42 290 356 278 222 285 414 117 988 1328 1274 992 809 454 225 167 79